Location: Novokuznetsk
(53.7500°N, 87.1000°E)
Time: 13:42:31
(UTC+06:00)

ISS - Pass Details

Date: 22 July 2018
Orbit: 402 x 408 km, 51.6° (Epoch: 23 July)

Event Time Altitude Azimuth Distance (km) Brightness Sun altitude
Rises 01:28:48 0° 277° (W) 2,330 -0.1 -14.3°
Reaches altitude 10° 01:30:58 10° 269° (W) 1,469 -1.2 -14.2°
Maximum altitude 01:34:03 38° 200° (SSW) 640 -3.4 -14.1°
Drops below altitude 10° 01:37:08 10° 130° (SE) 1,468 -1.2 -14.0°
Sets 01:39:17 0° 122° (ESE) 2,327 -0.1 -13.8°
